STARLINK-31275, 59197

Orbit data source: Space-Track

STARLINK-31275, 59197 is a payload satellite owned by SpaceX/Seattle (US) in LEO that was launched on Sun, 10 Mar 2024 UTC via an FALCON 9 launch vehicle from the Air Force Eastern Test Range (AFETR). Payload-class satellites include a variety of spacecraft equipped with specific instruments for various scientific and technological missions. These include communications satellites like Starlink; space stations such as the ISS; scientific satellites like the Hubble; Earth observation satellites from companies like Planet Labs, Umbra, and HawkEye 360; GPS; miniature CubeSats for education and research; and military/defense satellites.

Loading next visibility...
Identifier
59197, 2024-045V
Orbit
LEO
Country
Flag of USUS
Related business
Manufacturer
SpaceX/Seattle
Mission
Operational Commercial Communications
Bus & Motor
STARLINK V2M, Unknown motor
Mass
730 kg wet, ~700 kg dry
Launch date (UTC)
2024-03-10 (2 years ago)
Launch vehicle
FALCON 9
Launch site
Air Force Eastern Test Range (AFETR)
Object type
Payload
Rocket body
Debris
Shape & HBR
Box + 2 Pan, 17.7 m
Radar Cross Section
33.884 m², Large (>1 m²)

Expand to show TLE details & history
Last TLE update: 2 days ago

TLE from 2 days ago
0 STARLINK-31275
1 59197U 24045V   26171.44455448  .00014691  00000-0  54206-3 0  9992
2 59197  43.0020 232.4785 0002167 285.2274  74.8338 15.27596196128879
Epoch: 2026-06-20T10:40Z
TLE epoch observation values (Epoch: 2026-06-20T10:40:09.507Z)
Latitude
Longitude
163.7798°
Altitude
482.388 km
Speed
7.626 km/s
True Right ascension
15h 29m 54s
True Declination
0° 00' 00"
Sunlit
Object was in full shadow at epoch
Visualization orbit readout
Latitude
Unknown
Longitude
Unknown
Altitude
Unknown
Speed
Unknown
Apparent Right ascension
Unknown
Apparent Declination
Unknown
Sunlit
N/A
Visualization observer readout
Local Sidereal Time
21:30:06
Azimuth
Unknown
Elevation
Unknown
Doppler factor
Unknown
Orbital elements
Apogee altitude
486.433 km
Perigee altitude
483.458 km
Semi-major axis
6,863.082 km
Eccentricity
0.00022
Inclination
43.002°
RAAN
232.4785°
Arg. of periapsis
285.2274°
True anomaly
74.85777°
Mean anomaly
74.8338°
Eccentric anomaly
74.84578°
Mean motion
3.81737 °/min
Orbital period
94.31 mins
BSTAR
0.00054206
Loading maneuver chart data...
Computing Atmospheric mass density...
Loading historical data...
Loading historical data...
Loading historical data...
Loading historical data...
Loading historical data...
Loading historical data...
Loading historical data...

Documentation

Showing up to 5 results
|